This demonstration page uses our WeatherBlox Daily Observations layout. Learn more.

Left ArrowRight Arrow

39.29038, -76.61219

Hourly Observations for May 5, 2017

Temp ( °F °C ) Dew Point ( °F °C ) Humidity (%) Winds ( mph kmh ) Pressure ( in mb ) Visibility ( mi km ) Precip ( " mm )
12:54 am 00:54 undefined 57 13.9 52 11.1 83 83 undefined N/A 29.93 1014 N/A 0.04 1.02
1:54 am 01:54 undefined 58 14.4 53 11.7 84 84 undefined N/A 29.90 1013 N/A 0.01 0.25
2:54 am 02:54 undefined 59 15 53 11.7 81 81 undefined N/A 29.85 1011 N/A N/A
3:54 am 03:54 undefined 60 15.6 54 12.2 80 80 undefined N/A 29.81 1009 N/A N/A
4:54 am 04:54 undefined 61 16.1 54 12.2 78 78 undefined N/A 29.77 1008 N/A N/A
5:54 am 05:54 undefined 60 15.6 56 13.3 86 86 undefined N/A 29.71 1006 N/A 0.07 1.78
6:54 am 06:54 undefined 60 15.6 57 13.9 90 90 undefined N/A 29.66 1005 N/A 0.21 5.33
7:54 am 07:54 undefined 61 16.1 58 14.4 90 90 undefined N/A 29.63 1004 N/A 0.30 7.62
8:54 am 08:54 undefined 63 17.2 59 15 87 87 undefined N/A 29.59 1002 N/A 0.20 5.08
9:54 am 09:54 undefined 63 17.2 60 15.6 90 90 undefined N/A 29.59 1002 N/A 0.46 11.68
10:54 am 10:54 undefined 66 18.9 62 16.7 87 87 undefined N/A 29.57 1001 N/A 0.17 4.32
11:54 am 11:54 undefined 66 18.9 61 16.1 84 84 undefined N/A 29.57 1001 N/A N/A
12:54 pm 12:54 undefined 67 19.4 61 16.1 81 81 undefined N/A 29.53 1000 N/A N/A
1:54 pm 13:54 undefined 67 19.4 61 16.1 81 81 undefined N/A 29.51 999 N/A N/A
2:54 pm 14:54 undefined 69 20.6 64 17.8 84 84 undefined N/A 29.50 999 N/A N/A
3:54 pm 15:54 undefined 70 21.1 64 17.8 82 82 undefined N/A 29.48 998 N/A N/A
4:54 pm 16:54 undefined 71 21.7 62 16.7 73 73 undefined N/A 29.44 997 N/A N/A
5:54 pm 17:54 undefined 69 20.6 62 16.7 78 78 undefined N/A 29.43 997 N/A N/A
6:54 pm 18:54 undefined 69 20.6 62 16.7 78 78 undefined N/A 29.43 997 N/A N/A
7:54 pm 19:54 undefined 69 20.6 62 16.7 78 78 undefined N/A 29.42 996 N/A N/A
8:54 pm 20:54 undefined 67 19.4 63 17.2 87 87 undefined N/A 29.41 996 N/A N/A
9:54 pm 21:54 undefined 67 19.4 62 16.7 84 84 undefined N/A 29.40 996 N/A N/A
10:54 pm 22:54 undefined 68 20 63 17.2 84 84 undefined N/A 29.39 995 N/A N/A
11:54 pm 23:54 undefined 68 20 63 17.2 84 84 undefined N/A 29.37 995 N/A N/A

Powered by AerisWeather